This is the latest recevied weather packets stored in our database for station/object KH6DH-13. If no packets are shown the sender has not sent any weather packets the latest 10 day(s).
| Time | Temp. | Humidity | Pressure | Rain* | Wind** | Luminosity | Snow |
|---|---|---|---|---|---|---|---|
| 1788137598 | 87° F | - | - | 0 in | 9 mph, 238° | - | - |
| 1788136997 | 86° F | - | - | 0 in | 4 mph, 270° | - | - |
| 1788136396 | 85° F | - | - | 0 in | 7 mph, 46° | - | - |
| 1788135795 | 86° F | - | - | 0 in | 6 mph, 142° | - | - |
| 1788135194 | 85° F | - | - | 0 in | 7 mph, 117° | - | - |
| 1788134593 | 85° F | - | - | 0 in | 5 mph, 3° | - | - |
| 1788133992 | 85° F | - | - | 0 in | 7 mph, 79° | - | - |
| 1788133391 | 85° F | - | - | 0 in | 5 mph, 79° | - | - |
| 1788132790 | 85° F | - | - | 0 in | 7 mph, 65° | - | - |
| 1788132189 | 85° F | - | - | 0 in | 4 mph, 79° | - | - |
| 1788131588 | 85° F | - | - | 0 in | 6 mph, 42° | - | - |
| 1788130987 | 84° F | - | - | 0 in | 5 mph, 359° | - | - |
| 1788130386 | 85° F | - | - | 0 in | 6 mph, 76° | - | - |
| 1788129785 | 84° F | - | - | 0 in | 0 mph | - | - |
| 1788129228 | 84° F | - | - | 0 in | 6 mph, 49° | - | - |
| 1788129184 | 84° F | - | - | 0 in | 6 mph, 49° | - | - |
| 1788128583 | 82° F | - | - | 0 in | 2 mph, 56° | - | - |
| 1788127981 | 83° F | - | - | 0 in | 3 mph, 42° | - | - |
| 1788127380 | 83° F | - | - | 0 in | 3 mph, 108° | - | - |
| 1788126779 | 82° F | - | - | 0 in | 1 mph, 152° | - | - |
| 1788126178 | 82° F | - | - | 0 in | 3 mph, 111° | - | - |
| 1788125577 | 82° F | - | - | 0 in | 4 mph, 129° | - | - |
| 1788124976 | 82° F | - | - | 0 in | 5 mph, 44° | - | - |
| 1788124375 | 82° F | - | - | 0 in | 4 mph, 89° | - | - |
| 1788123774 | 83° F | - | - | 0 in | 7 mph, 63° | - | - |
* Rain latest hour (hover to see other rain measurements)
** Current wind speed in m/s (hover to see current wind gust speed)